www.pogodaiklimat.ru

Погода и климат >> Архив погоды >> Канада >> Онтарио >> Ватерлоо


ПОГОДА в Ватерлоо

  • Прогноз погоды в Ватерлоо
  • Монитор погоды в Ватерлоо

АРХИВ ПОГОДЫ в Ватерлоо

Время (UTC), дата Ветер
(напр.,м/с)
 
Видим.   Явления Облачность Т
(С)
Тd
(С)
f
(%)
Тe
(С)
Тes
(С)
Комфортность P
(гПа)
Po
(гПа)
Тmin
(С)
Tmax
(С)
R
(мм)
R24
(мм)
S
(см)
09 19.03 ЮЗ 2 14 км 10/0
[]
-2.5 -3.5 93 -6 -6 1027.5 987.7
12 19.03 В 1 3600 м дымка ясно -6.0 -6.7 95 -9 -8 1028.8 988.6 -6.2 +2.3
15 19.03 ЮЗ 2 16 км ясно +3.0 -4.1 60 0 +8 1029.4 989.6
18 19.03 З 6 16 км ясно +5.3 -6.7 42 +1 +6 1029.2 989.6 -6.3 +5.6
21 19.03 З 5 16 км 3/3 1500 м
[]
+5.3 -6.4 43 +1 +3 1027.8 988.2
00 20.03 З 2 16 км ясно +1.6 -6.1 57 -1 -1 1027.5 987.5 -6.3 +6.0
03 20.03 Ю 3 16 км ясно -0.8 -4.0 79 -5 -5 1026.8 987.2
06 20.03 Ю 4 12 км ясно -1.5 -4.5 80 -7 -7 1025.6 986.1 -6.3 +6.0 17
09 20.03 Ю 3 12 км 10/0
[]
-1.8 -4.2 84 -6 -6 1024.3 984.9
12 20.03 Ю 4 11 км ясно -1.4 -3.6 85 -7 -7 1023.9 984.3 -2.4 +6.0
15 20.03 Ю 6 16 км ясно +5.3 -2.2 58 +1 +4 1023.1 983.7
18 20.03 Ю 7 16 км 5/0
[]
+7.1 -2.3 51 +3 +5 1021.5 982.2 -2.4 +7.5
21 20.03 Ю 4 16 км 10/0
[]
+7.8 -1.8 51 +5 +6 1019.0 979.9
00 21.03 ЮЗ 6 16 км слаб. дождь 10/10 1000 м
[]
+3.6 -0.9 72 -2 -2 1019.3 980.0 -2.4 +8.2
03 21.03 ЮВ 3 4000 м слаб. дождь {осадки} 10/10 200 м
[]
+0.9 +0.5 97 -3 -3 1018.6 979.5
06 21.03 ЮВ 4 3600 м осадки 10/10 100 м
[]
+1.0 +0.6 97 -4 -4 1016.7 977.7 -2.4 +8.2 1 1
09 21.03 В 3 2000 м слаб. дождь {осадки} 10/10 50 м
[]
+1.3 +1.0 98 -3 -3 1014.6 975.7
12 21.03 В 3 2400 м слаб. дождь {осадки} 10/10 50 м
[]
+1.6 +1.3 98 -3 -3 1013.7 974.7 +0.8 +8.2 2
15 21.03 В 2 4000 м дымка {осадки} 10/10 300 м
[]
+3.0 +2.3 95 0 0 1013.0 974.0
18 21.03 ЮЗ 3 14 км {осадки} 10/10 300 м
[]
+5.7 +3.2 84 +3 +3 1011.5 972.7 +0.8 +6.0 0.3
21 21.03 З 3 16 км 10/10 300 м
[]
+5.9 +3.4 84 +3 +3 1009.4 970.7
00 22.03 З 5 14 км 10/10 600 м
[]
+4.0 +2.0 87 -1 -1 1009.7 970.9 +1.0 +6.6
03 22.03 З 4 16 км 10/10 600 м
[]
+2.0 -0.1 86 -3 -3 1009.3 970.5
06 22.03 З 5 9000 м дымка 10/10 600 м
[]
+1.6 +0.3 91 -4 -4 1007.6 968.9 +1.0 +6.6
09 22.03 З 5 16 км 10/10 300 м
[]
+1.4 -0.2 89 -4 -4 1005.4 966.8
12 22.03 СЗ 6 16 км 10/10 300 м
[]
+0.8 -1.9 82 -6 -6 1004.8 966.1 +0.8 +6.6
15 22.03 СЗ 9 16 км слаб. дождь 10/10 300 м
[]
+1.1 -2.3 78 -6 -6 1005.3 966.6
18 22.03 СЗ 10 16 км 9/9 600 м
[]
+1.8 -4.9 61 -5 -5 1007.1 968.3 -0.1 +2.1
21 22.03 СЗ 10 16 км 10/10 600 м
[]
-1.9 -7.6 65 -10 -10 1009.1 970.1
00 23.03 СЗ 11 16 км 10/10 600 м
[]
-2.8 -8.3 66 -12 -12 1012.6 973.4 -2.9 +2.1
03 23.03 СЗ 10 16 км 3/3 600 м
[]
-3.2 -8.5 67 -12 -12 1014.9 975.6
06 23.03 СЗ 9 16 км ясно -4.8 -10.8 63 -14 -14 1016.2 976.8 -4.8 +2.1 191
09 23.03 СЗ 7 16 км ясно -7.0 -12.9 63 -16 -16 1018.1 978.4
12 23.03 СЗ 5 16 км ясно -7.3 -11.9 70 -15 -15 1020.9 980.9 -7.7 +2.1
15 23.03 СЗ 7 16 км ясно -2.7 -14.2 41 -10 -7 1023.1 983.3
18 23.03 СЗ 6 16 км ясно +1.6 -10.1 41 -4 +1 1023.5 983.8 -7.7 +1.8
21 23.03 З 7 16 км ясно +2.4 -7.3 49 -3 -2 1023.3 983.6
00 24.03 З 4 16 км ясно -0.7 -8.7 55 -6 -6 1023.6 983.6 -7.7 +3.3
03 24.03 З 3 16 км ясно -2.5 -6.8 72 -7 -7 1023.2 983.4
06 24.03 ЮЗ 3 16 км ясно -1.9 -5.8 75 -7 -7 1022.0 982.5 -7.7 +3.3 81
09 24.03 З 5 16 км ясно +0.5 -5.1 66 -5 -5 1020.5 981.2
12 24.03 З 5 16 км 9/0
[]
+1.8 -4.9 61 -3 -3 1020.7 981.3 -2.9 +3.3
15 24.03 ЮЗ 5 16 км 10/0
[]
+4.3 -3.0 59 0 +3 1019.9 980.6
18 24.03 З 7 16 км 3/0
[]
+8.0 -1.0 53 +4 +7 1017.8 978.7 -2.9 +8.0
21 24.03 З 6 16 км ясно +7.3 -0.6 57 +4 +6 1016.9 977.9
00 25.03 СЗ 4 16 км 9/0
[]
+4.0 -1.2 69 0 0 1018.3 979.2 -2.9 +9.3
03 25.03 С 4 16 км 9/9 1500 м
[]
+0.6 -2.5 80 -5 -5 1019.8 980.6
06 25.03 С 5 16 км 10/10 1500 м
[]
-0.8 -6.2 67 -6 -6 1021.5 982.3 -2.9 +9.3 191
09 25.03 С 3 16 км ясно -3.5 -12.8 48 -8 -8 1022.6 983.2
12 25.03 С 2 16 км ясно -4.4 -10.6 62 -8 -8 1024.2 984.6 -6.3 +9.3
15 25.03 СВ 4 16 км ясно -0.6 -15.7 31 -5 +2 1025.0 985.4
18 25.03 С 5 16 км ясно +2.3 -14.9 27 -2 +4 1023.6 984.1 -6.3 +2.8
21 25.03 СЗ 5 16 км ясно +3.5 -13.1 28 -0 +2 1022.5 983.0
00 26.03 СЗ 4 16 км ясно -2.1 -12.8 44 -7 -7 1024.0 984.1 -6.3 +3.5
03 26.03 СЗ 4 16 км ясно -3.9 -12.2 52 -10 -10 1025.6 985.8
06 26.03 СЗ 3 16 км ясно -4.3 -9.7 66 -9 -9 1026.4 986.7 -6.3 +3.5 19

 

Местоположение метеостанции Ватерлоо (Онтарио, Канада): широта 43.45 долгота -80.38 высота над уровнем моря 317 м.

В архиве по умолчанию представлена погода в Ватерлоо за последнюю неделю. Архивные данные за месяц целиком и за предыдущие месяцы, начиная с января 2011 года, Вы можете получить, выбрав интересующий диапазон дат из раскрывающегося списка и нажав кнопку "Ввод!".


*Определитесь, кто Вы:
робот инопланетянин человек

Внимание! Время в таблицах - всемирное. Для получения местного времени необходимо прибавить поправку, которая равна -5 ч.

Смотрите также архив погоды в соседних городах и на ближайших метеорологических станциях:

Погода в Гвелфе (Онтарио, Канада) (17 км)
Погода в Элоре (Онтарио, Канада) (22 км)
Погода в Брантфорде (Онтарио, Канада) (36 км)
Погода в Гамильтоне (Онтарио, Канада) (43 км)
Погода в Гамильтон аэропорту (Онтарио, Канада) (48 км)
Погода в Берлингтоне (Онтарио, Канада) (50 км)
Погода в Торонто (Онтарио, Канада) (65 км)
Погода в Дели (Онтарио, Канада) (66 км)
Погода в Маунт Форест (Онтарио, Канада) (66 км)
Погода в Аэропорту Драйден (Онтарио, Канада) (67 км)

Пояснения к столбцам:

Ветер - указаны скорость ветра в м/с - средняя за 10 мин, порывы в срок и между сроками (в фигурных скобках) и направление, откуда дует ветер: С - северный, СВ - северо-восточный, В - восточный, ЮВ - юго-восточный, Ю - южный, ЮЗ - юго-западный, З - западный, СЗ - северо-западный.
Видимость - горизонтальная дальность видимости в метрах или километрах. При видимости от 1 до 10 км при отсутствии осадков обычно наблюдается дымка, при ухудшении видимости до 1 км и менее - туман. В сухую погоду видимость может ухудшаться дымом, пылью или мглою.
Явления - указаны атмосферные явления, наблюдавшиеся в срок или в последний час перед сроком; фигурными скобками обозначены явления, наблюдавшиеся между сроками (за 1-3 часа до срока); квадратными скобками обозначены град или гололедные отложения с указанием их диаметра в мм.
Облачность - указаны через наклонную черту общая и нижняя облачность в баллах и высота нижней границы облаков в метрах; квадратными скобками обозначены формы облаков: Ci - перистые, Cs - перисто-слоистые, Cc - перисто-кучевые, Ac - высококучевые, As - высокослоистые, Sc - слоисто-кучевые, Ns - слоисто-дождевые, Cu - кучевые, Cb - кучево-дождевые. Подробнее классификацию облаков см. в Атласе облаков (PDF).
T - Температура воздуха - температура, измеренная на высоте 2 м над землей.
Td - Температура точки росы - температура, при понижении до которой содержащийся в воздухе водяной пар достигнет насыщения.
f - Относительная влажность воздуха - влажноcть воздуха, измеренная на высоте 2 м над землей.
Te - Эффективная температура - температура, которую ощущает одетый по сезону человек в тени. Характеристика душности погоды. При расчете учитывается влияние влажности воздуха и скорости ветра на теплоощущения человека.
Tes - Эффективная температура на солнце - температура, которую ощущает человек, с поправкой на солнечный нагрев. Характеристика знойности погоды. Зависит от высоты солнца над горизонтом, облачности и скорости ветра. Ночью, в пасмурную погоду, а также при ветре 12 м/с и более поправка равна нулю.
P - Атмосферное давление - приведенное к уровню моря атмосферное давление.
Po - Атмосферное давление - измеренное на уровне метеостанции атмосферное давление.
Tmin - Минимальная температура - минимум температуры воздуха на высоте 2 м над землей.
Tmax - Максимальная температура - максимум температуры воздуха на высоте 2 м над землей.
R - Количество осадков - Количество выпавших осадков за период времени, мм. При наведении курсора мыши на число - период времени, за который выпало указанное количество осадков.
R24 - Количество осадков - Количество выпавших осадков за 24 часа, мм.
S - Снежный покров - Высота снежного покрова, см. При наведении курсора мыши на число - состояние снежного покрова и степень покрытия местности в баллах.